Regional Weather Roundup
Issued by NWS Kansas City/Pleasant Hill, MO

Home | Current Version | Previous Version | Graphics & Text | Print | Product List | Glossary Off
Versions: 1 2 3 4 5 6 7 8 9 10 11 12 13 14 15 16 17 18 19 20 21 22 23 24 25 26 27 28 29 30 31 32 33 34 35 36 37 38 39 40 41 42 43 44 45 46 47 48 49 50

000
ASUS43 KEAX 250504
RWREAX

WEATHER ROUNDUP FOR EASTERN KANSAS AND NORTHWEST MISSOURI
NATIONAL WEATHER SERVICE KANSAS CITY/PLEASANT HILL MO
1200 AM CDT FRI JUL 25 2014

KSZ040-057-103>105-MOZ028-029-037-043-250600-
...KANSAS CITY METROPOLITAN AREA...

CITY           SKY/WX    TMP DP  RH WIND       PRES   REMARKS
K.C. INTL      CLEAR     69  60  73 S9        29.96F
K.C. DOWNTOWN  CLEAR     76  58  53 S7        29.95F
LEES SUMMIT    CLEAR     71  59  65 S7        29.98F
OLATHE - IXD   CLEAR     71  60  68 S12       29.97F
OLATHE - OJC   CLEAR     71  59  65 S10       29.96F
LAWRENCE       CLEAR     70  61  73 S7        29.96F

$$

MOZ001>008-011>017-020>025-030>033-038>040-044>046-053-054-250600-
...NORTHERN AND CENTRAL MISSOURI...

CITY           SKY/WX    TMP DP  RH WIND       PRES   REMARKS
ST. JOSEPH     CLEAR     72  61  68 S9        29.95F
MOSBY          CLEAR     68  61  77 SE6       29.97F
WHITEMAN AFB   CLEAR     67  49  51 S9        29.99F
CLINTON        CLEAR     70  61  73 SE5       30.00F
SEDALIA        CLEAR     66  57  72 SE6       30.01F
WARSAW         NOT AVBL
MARSHALL       CLEAR     68  63  83 SE3       29.99F
CHILLICOTHE      N/A     70  58  65 S8        29.97F
KIRKSVILLE     CLEAR     64  58  80 SE9       30.00R

$$

MOZ041-047>049-056>058-063>065-088>090-097-250600-
...EASTERN AND SOUTHERN MISSOURI...

CITY           SKY/WX    TMP DP  RH WIND       PRES   REMARKS
ST. LOUIS INTL CLEAR     68  55  63 SE3       30.04F
SPIRIT OF STL  CLEAR     62  55  77 CALM      30.03F
COLUMBIA       CLEAR     64  57  78 SE7       30.02F
JEFFERSON CITY CLEAR     65  56  72 SE7       30.01F
HANNIBAL       PTCLDY    66  54  63 SE5       30.02R
ROLLA          CLEAR     65  53  65 E9        30.04S
LEBANON        CLEAR     68  55  64 E3        30.06F
OSAGE BEACH    CLEAR     66  54  63 S5        30.02F
SPRINGFIELD    CLEAR     69  59  70 SE6       30.05S
BRANSON        CLEAR     68  57  68 S6        30.07F
NEVADA         CLEAR     68  59  73 SE5       30.03F
JOPLIN         CLEAR     74  62  66 SE6       30.03S
WEST PLAINS    CLEAR     63  56  78 NE3       30.10R

$$

IAZ060-094-KSZ022-034>040-054-083-096-NEZ052-066-093-250600-
...KANSAS...SOUTHEAST NEBRASKA AND IOWA...

CITY           SKY/WX    TMP DP  RH WIND       PRES   REMARKS
TOPEKA         CLEAR     77  58  51 SE13      29.95F
MANHATTAN      PTCLDY    79  67  66 SE8       29.93S
EMPORIA        CLOUDY    74  66  76 SE12      29.97F
CHANUTE        CLEAR     75  66  73 SE7       30.00S
WICHITA        PTCLDY    79  70  74 S14       29.95F
OMAHA          PTCLDY    74  59  59 S23G29    29.86F
LINCOLN        MOCLDY    77  61  57 S17       29.87F
FALLS CITY     CLEAR     72  61  68 S14       29.90F
LAMONI         PTCLDY    68  59  73 S13       29.94F
DES MOINES     PTCLDY    70  59  68 S6        29.95R

$$



USA.gov is the U.S. government's official web portal to all federal, state and local government web resources and services.